2022-098M (53455 NORAD) Tracking and Keplerian Element Data

This shows tracking and keplerian element data for the satellite.

Feedback or suggestion? Click here.




ElementValue
Catalog53455
Name2022-098M
Epoch Orbit722
Epoch Day270.16988715
Epoch Year2022
RAAN5.7023
Inclination97.5295
Eccentricity0.0013514
Argument of Perigee116.0282
Mean Anonmoly333.5737
Mean Motion15.10388967
Decay Rate6.363E-05
L11 53455U 22098M 22270.16988715 .00006363 00000+0 39044-3 0 9991
L22 53455 97.5295 5.7023 0013514 116.0282 333.5737 15.10388967 7222

Live tracking and technical data element details for 2022-098M (NORAD 53455). 2022-098M can be tracked NOW for your location showing map with azimuth and elevation plus other details from your city location.

Track the satellite on the map from your city or location and see movement details for azimuth, elevation, latitude, longitude, range, height, and movement on the map or in text.







IsCatalogInMostPopularTable: catalog: 53455, numindb: 3
Update: records affected: 1



GetName: 53455 2022-098M

Hit Count: updated at: Fri, 30 Sep 2022 03:22:06 GMT